Tracking 29932 objects as of 3-Dec-2024
HD Live streaming from Space Station
objects crossing your sky now

STARLINK-5893

Track STARLINK-5893 now!
10-day predictions
STARLINK-5893 is classified as:


NORAD ID: 55952
Int'l Code: 2023-037AQ
Perigee: 577.1 km
Apogee: 581.2 km
Inclination: 70.0 °
Period: 96.1 minutes
Semi major axis: 6950 km
RCS: Unknown
Launch date: March 17, 2023
Source: United States (US)
Launch site: AIR FORCE WESTERN TEST RANGE (AFWTR)
Your satellite tracking list
Your tracking list is empty




NASA's NSSDC Master Catalog

Two Line Element Set (TLE):
1 55952U 23037AQ  24337.33214376  .00000643  00000-0  61678-4 0  9994
2 55952  69.9980 350.3388 0002964 269.5585  90.5234 14.98332326 95211
Source of the keplerian elements: AFSPC